RH
10 10 8 8 7 6 5 5 6 6 8 8 9 10 10 11 11 9 8 8 8 10 13 15 15 16 18 20 20 20 20 20 21 22 21 20 19 18 19 20 19 19 19 19 19 19 19 19 20 20 20 24 29 31 30 31 33 30 26 27 30 31 29 29 30 29 29 31 32 33 36 38 41 44 45 47 52 52 53 56 59 62 65 62 65 67 59
9 8 7 6 6 6 6 6 7 8 8 9 9 9 9 9 9 8 8 8 8 10 12 13 14 16 18 19 18 19 20 20 19 20 20 19 19 18 19 20 20 21 21 20 20 21 20 20 21 21 20 25 31 33 32 32 32 30 29 30 31 31 29 30 32 31 31 33 34 35 38 40 42 44 47 50 53 54 54 57 61 64 64 64 69 68 59
7 6 6 5 6 7 7 7 8 9 9 9 9 9 8 9 9 8 8 8 8 10 12 13 14 15 15 16 16 16 17 18 18 19 21 21 19 19 20 21 21 22 23 22 22 23 21 20 22 22 21 26 33 33 32 34 34 33 33 33 34 32 29 31 34 35 37 38 39 39 40 42 43 45 49 52 54 56 57 58 63 65 62 66 71 65 55
6 6 6 6 7 7 8 8 8 9 9 9 9 9 9 9 9 9 8 8 8 10 12 12 13 14 14 13 14 15 15 17 18 19 20 21 21 21 22 23 22 22 23 23 22 23 23 22 22 23 22 25 31 33 33 36 37 36 34 33 34 32 30 31 34 36 38 39 39 39 39 42 44 46 52 55 55 57 56 58 63 63 61 65 67 64 58
6 6 6 7 8 8 8 7 8 8 8 8 9 8 8 9 10 10 10 9 9 10 11 12 12 13 12 12 14 14 15 17 18 18 19 20 22 22 22 23 22 21 22 22 21 23 24 23 23 25 25 25 29 33 36 37 36 36 36 34 34 33 31 33 36 36 37 37 38 38 39 42 44 46 51 54 56 59 59 59 60 60 63 64 61 64 66
7 7 7 7 7 7 7 7 7 7 7 8 8 8 8 10 10 10 9 11 12 11 11 13 13 13 12 12 14 14 14 16 16 17 19 20 21 21 21 22 22 21 22 22 22 23 24 24 26 29 28 27 27 30 34 36 35 36 36 34 35 34 32 36 40 40 37 37 38 39 40 42 43 45 47 49 54 60 61 61 59 60 65 64 58 62 67
7 7 7 7 6 6 6 6 6 7 7 7 8 8 9 9 9 8 8 11 13 12 12 14 14 13 12 12 13 14 14 15 15 16 17 18 19 20 19 20 21 22 23 23 22 23 23 24 28 31 31 30 28 27 30 33 34 35 33 33 35 34 34 39 42 40 39 38 38 39 39 41 43 44 46 47 51 57 60 61 59 60 63 63 61 64 65
6 6 6 5 5 5 5 6 6 6 6 7 8 8 8 8 8 8 8 10 12 11 11 13 13 12 11 11 13 13 13 14 15 16 16 16 18 19 19 20 22 24 24 24 23 23 24 23 25 30 31 30 28 26 27 30 33 34 33 35 36 35 36 40 40 38 38 36 36 38 39 40 42 42 44 47 49 52 57 60 61 62 64 65 66 67 66
5 5 5 4 4 4 5 6 6 6 7 7 7 8 7 7 7 7 8 9 11 10 10 11 10 9 9 10 12 13 13 13 14 15 15 15 17 19 19 20 24 26 26 25 24 25 26 25 26 28 28 26 27 26 25 28 33 35 36 38 37 35 35 37 38 38 37 34 35 38 38 39 43 45 46 48 49 51 55 58 61 62 64 66 69 70 67
4 4 4 4 4 4 5 6 6 7 7 7 7 6 7 7 6 6 7 9 10 10 9 9 9 9 10 12 14 14 13 13 14 14 14 16 17 18 19 21 22 25 26 27 27 27 28 28 27 27 27 26 26 26 26 28 32 35 38 39 39 38 36 35 37 39 36 35 35 37 39 42 45 46 47 46 46 49 51 55 58 59 62 66 69 69 65
4 4 4 4 5 5 5 6 6 6 6 6 6 6 6 6 6 6 6 8 10 10 9 8 9 10 12 14 15 15 13 13 15 13 14 18 18 16 18 21 20 21 26 28 27 26 26 27 27 27 28 28 27 28 29 30 31 34 37 38 40 42 39 36 38 39 37 36 36 38 42 45 43 42 42 43 45 46 49 54 58 59 62 64 65 65 63
4 4 4 4 4 4 5 5 5 6 5 5 6 5 5 5 5 5 5 7 10 10 9 9 10 12 14 15 15 15 14 15 15 13 15 20 20 17 19 22 21 21 25 26 25 26 27 28 29 29 30 32 31 31 32 32 33 35 35 36 40 42 39 38 39 40 38 36 38 43 46 44 41 40 39 41 43 44 46 52 56 57 59 60 61 63 63
3 3 4 4 4 4 4 4 4 5 4 5 5 5 5 5 4 5 5 6 8 9 9 10 11 13 14 14 15 16 15 15 14 14 17 20 21 20 20 21 22 23 24 24 25 27 27 27 28 28 29 30 31 33 34 34 35 36 37 38 39 39 39 39 39 40 39 38 41 46 44 39 38 40 39 41 44 44 45 50 52 53 55 57 58 61 62
4 4 4 4 4 4 4 4 4 4 4 4 4 4 4 4 4 5 4 5 8 9 9 9 11 13 13 14 15 15 15 14 13 15 18 19 22 23 22 21 22 23 24 25 26 26 24 23 24 25 26 27 28 30 33 34 35 37 39 39 39 38 38 40 40 40 40 40 41 41 40 38 39 40 40 42 44 44 46 50 50 51 54 55 56 58 60
4 4 5 5 5 5 5 5 4 4 4 4 4 4 4 4 4 4 4 5 7 8 9 9 10 12 13 14 13 12 12 12 12 15 18 19 22 24 23 22 23 23 24 25 25 23 23 23 24 24 25 26 26 27 28 30 34 37 38 39 40 39 38 40 43 42 40 41 41 41 42 42 40 40 40 43 45 45 47 51 51 50 52 55 55 57 60
5 5 5 5 5 5 5 5 5 5 5 4 4 4 4 4 4 5 5 5 6 8 9 8 9 11 12 13 13 11 11 11 11 13 16 18 22 24 23 22 23 24 25 25 23 22 23 23 24 24 25 25 26 26 26 27 31 35 38 39 40 40 39 41 45 44 41 42 43 44 46 44 40 40 42 45 47 47 49 53 52 49 51 55 56 58 60
4 4 4 4 5 5 5 5 6 6 6 6 6 6 6 6 6 6 6 6 7 9 10 8 8 10 10 11 11 10 10 11 11 12 13 17 23 25 24 23 24 25 25 24 23 23 23 24 24 25 25 25 26 27 27 27 29 33 36 38 40 41 41 42 45 44 41 43 44 44 44 42 40 42 44 46 48 49 53 56 53 50 53 56 57 59 61
4 4 4 5 5 5 6 6 6 7 7 7 7 7 7 7 7 7 7 7 8 11 11 9 10 11 10 10 10 10 10 11 11 12 14 17 21 23 23 24 25 25 26 25 24 23 24 24 24 25 25 26 27 28 28 28 30 32 33 36 40 43 42 42 44 43 42 44 45 44 42 40 40 43 46 48 49 51 53 54 52 51 54 56 58 60 62
6 6 6 6 6 6 6 6 6 6 6 7 7 7 7 7 7 7 7 7 8 10 11 10 11 12 11 10 10 9 10 11 11 12 14 16 19 21 21 22 24 25 25 25 24 24 24 24 25 25 26 27 28 28 28 29 30 31 33 36 39 42 42 42 43 42 41 42 45 45 42 39 41 45 47 48 50 50 49 49 50 52 53 55 58 61 62
9 8 8 8 8 8 8 8 8 8 8 8 8 8 8 9 8 8 8 7 7 8 10 10 10 11 12 11 10 10 11 11 12 13 14 16 19 20 18 20 22 23 24 24 24 24 24 24 25 26 27 27 27 28 29 30 30 31 35 38 39 40 41 41 41 41 41 42 46 48 44 41 42 46 47 48 48 46 46 47 48 51 53 54 57 59 62
10 10 10 11 11 11 11 11 11 11 11 11 10 10 10 10 10 9 9 9 8 9 11 11 10 11 12 12 11 11 11 11 12 13 14 16 18 18 17 18 21 22 23 24 25 25 25 25 26 27 27 27 28 29 30 31 31 33 37 39 40 41 41 40 39 40 42 44 45 44 42 42 43 44 44 45 45 43 44 46 48 50 52 54 57 59 62
12 12 12 12 12 12 12 12 12 12 12 12 12 12 12 12 12 11 11 10 10 11 13 12 11 11 12 12 12 11 11 12 12 14 15 16 18 19 19 19 21 23 23 24 25 25 25 26 26 27 28 28 29 30 31 31 32 36 38 39 39 40 39 38 39 40 42 43 41 39 41 44 43 41 41 43 44 43 44 46 48 49 51 54 56 59 61
13 13 13 13 13 13 13 13 12 12 12 12 12 13 13 14 14 13 13 12 12 13 14 14 13 12 12 12 12 12 12 13 13 15 16 17 19 19 19 20 22 24 24 25 25 26 26 26 26 27 28 29 29 31 32 33 33 35 38 38 37 38 37 37 38 39 39 38 37 37 41 42 41 40 39 41 43 43 44 45 46 48 50 53 56 57 60
15 14 14 14 14 13 13 13 13 13 13 13 13 13 13 14 14 14 14 14 13 15 16 17 15 14 13 13 12 13 13 14 15 16 17 18 19 20 20 21 23 25 27 26 26 26 26 27 28 28 29 30 30 30 32 34 34 35 37 37 37 37 37 37 37 38 38 35 33 36 39 38 36 37 38 39 41 41 41 42 43 44 47 51 54 55 57
17 17 16 15 14 13 13 13 13 14 14 14 13 14 14 14 14 14 14 14 13 15 18 19 17 15 15 15 14 14 15 15 17 18 18 19 19 19 21 23 25 28 30 29 28 27 27 27 28 29 30 31 31 31 32 34 34 35 37 38 36 36 37 37 36 37 37 33 32 36 37 34 32 34 35 36 36 36 36 37 39 40 44 48 50 52 56
18 18 17 16 15 14 13 14 14 15 15 14 15 15 14 14 13 13 13 13 13 13 16 19 19 17 17 17 17 16 17 18 18 19 20 20 20 20 23 26 28 30 31 30 30 29 29 28 29 30 31 32 32 32 34 35 35 35 37 38 36 36 38 38 36 36 35 33 33 36 35 30 28 29 29 30 31 31 32 34 35 37 40 43 46 50 55
18 18 18 17 15 14 14 15 16 16 16 15 15 14 13 13 13 13 13 13 14 15 17 21 21 20 19 19 19 18 19 19 20 21 21 22 23 25 27 30 31 32 32 32 31 31 30 31 32 32 33 33 33 35 37 37 38 39 40 38 37 38 39 39 38 38 36 33 34 37 34 29 25 26 26 26 27 28 30 31 32 35 38 41 44 49 55
19 18 17 16 14 14 15 16 17 17 16 15 14 14 13 13 13 14 14 14 15 16 19 22 22 21 22 21 21 20 21 22 23 25 26 27 28 30 31 32 32 33 33 33 33 33 33 33 34 34 35 35 35 37 39 40 41 42 41 38 38 39 39 38 38 38 34 31 31 33 31 28 25 26 26 25 26 28 29 30 31 34 37 41 44 49 54
19 18 16 14 14 15 16 17 17 16 15 14 14 14 14 14 15 15 15 16 16 17 19 22 24 25 25 24 23 24 25 26 28 29 30 31 32 33 33 34 34 34 34 34 35 35 35 35 35 36 36 37 37 37 38 40 41 40 38 36 37 38 37 36 36 34 31 30 31 31 30 30 29 29 28 28 28 30 31 32 33 36 38 42 46 50 55
20 18 15 15 16 17 17 17 17 15 15 15 15 15 15 15 16 16 17 17 18 18 20 23 26 27 27 27 28 29 30 31 32 32 33 33 33 33 33 35 36 37 37 37 37 36 36 36 38 39 38 38 38 38 38 39 39 37 35 35 36 35 34 34 35 34 33 33 34 34 34 33 33 32 31 32 33 35 36 37 38 40 43 46 49 51 55
19 16 15 16 17 18 17 16 16 15 15 16 16 16 17 17 17 18 19 20 21 21 23 25 29 30 30 31 31 32 32 33 33 33 33 33 34 34 35 36 37 38 39 39 39 38 38 37 39 41 41 40 40 40 39 39 39 38 36 35 34 34 34 34 34 35 36 36 37 36 33 33 35 36 36 36 39 41 43 44 44 46 49 51 52 54 56
18 16 17 18 18 18 17 16 16 16 17 17 16 17 18 19 20 21 22 22 23 24 25 27 30 31 31 32 31 31 32 33 33 33 34 34 34 35 36 36 37 38 39 39 39 39 39 39 39 41 43 43 41 41 40 40 40 38 34 33 33 33 33 32 31 33 34 35 35 34 30 29 33 37 38 41 44 46 48 49 51 53 55 54 55 56 58
19 17 18 19 19 19 18 17 17 18 18 18 19 20 21 21 22 23 23 24 25 25 26 27 29 30 30 31 32 32 33 34 34 34 35 35 35 35 36 36 37 37 38 38 38 38 38 40 41 42 44 44 42 42 42 41 39 36 33 33 34 34 34 32 31 29 28 27 29 31 29 29 33 36 38 41 44 47 50 54 57 58 59 58 58 58 59
20 19 20 20 20 19 19 18 18 18 20 21 21 22 22 23 23 24 24 25 25 25 25 26 28 30 30 31 33 33 33 34 35 35 35 35 34 34 36 36 36 37 37 37 37 37 38 40 41 41 42 42 42 43 42 40 37 35 35 35 34 34 34 33 30 28 26 24 24 26 26 28 32 34 36 39 43 48 53 56 58 60 61 61 61 61 61
21 20 20 20 20 20 20 19 18 19 20 22 23 23 23 23 24 24 24 25 25 25 25 26 29 30 31 31 32 32 31 32 33 32 32 33 32 32 33 34 34 34 35 35 36 36 37 39 40 39 38 40 42 44 42 37 34 34 34 33 31 29 29 28 27 27 27 26 25 25 26 27 30 32 34 38 43 46 50 53 55 58 60 61 63 65 65
21 20 21 21 20 20 20 19 19 19 19 21 22 22 23 23 24 24 25 26 26 26 28 29 30 31 30 30 30 30 30 32 32 30 30 31 31 31 31 31 31 32 34 35 35 34 34 36 36 35 35 38 41 40 36 32 30 30 29 27 25 23 22 23 25 26 26 26 25 26 26 28 30 33 36 39 42 44 46 47 50 53 56 60 63 66 67
21 21 20 20 20 20 20 20 19 19 19 20 21 22 23 24 25 25 26 27 27 28 28 29 30 30 29 29 29 30 31 32 31 30 30 31 31 31 30 29 29 31 32 31 31 31 31 31 30 30 31 33 32 28 25 25 26 25 23 22 21 21 20 20 22 23 24 23 24 26 28 31 34 37 39 41 42 43 43 44 46 49 52 57 61 64 66
21 21 21 20 20 20 20 20 20 19 19 19 19 20 22 23 25 25 26 26 27 27 27 28 29 30 30 30 31 31 32 33 32 30 30 31 31 30 29 28 29 31 29 26 26 27 27 26 25 25 27 27 23 19 18 19 20 19 19 20 20 20 20 19 20 22 25 27 28 31 35 39 41 43 45 46 44 43 43 44 44 46 49 54 59 63 67
20 21 20 20 20 20 20 20 20 19 19 19 19 19 19 20 23 24 24 24 26 27 28 29 31 31 31 33 32 32 33 34 32 30 30 31 31 29 27 26 27 28 26 23 24 25 24 22 21 22 24 24 20 16 15 16 16 17 19 20 20 21 21 22 24 27 31 35 38 41 45 48 49 49 49 48 46 44 44 44 44 46 48 53 59 64 67
20 20 20 20 21 21 21 21 20 20 19 18 18 18 18 19 21 21 22 23 25 26 27 29 30 30 31 32 32 32 33 32 30 30 30 29 29 28 26 25 26 26 24 22 23 23 21 19 19 20 21 21 19 17 17 18 18 19 21 23 25 27 29 32 35 39 42 45 47 49 52 54 54 54 53 51 48 46 46 46 46 47 48 50 55 60 62
20 20 21 21 21 21 21 20 20 20 19 18 18 20 20 20 21 21 21 23 23 23 24 26 27 28 28 28 28 30 30 29 28 29 28 27 27 27 25 23 23 23 22 22 22 22 21 21 21 22 23 23 23 24 25 26 26 28 31 34 37 41 43 44 47 49 51 51 50 51 52 54 55 55 55 53 51 51 49 47 46 44 42 42 43 45 48
19 20 20 20 21 21 21 20 20 19 19 19 20 22 23 22 22 22 22 23 23 23 23 24 25 25 26 26 26 27 27 26 27 27 25 23 24 24 23 22 22 23 23 23 24 24 25 26 28 29 29 29 30 32 33 34 36 39 43 46 50 51 51 51 51 53 54 54 53 52 52 53 54 54 53 52 50 48 45 43 40 37 34 33 32 32 35
19 19 19 19 20 20 20 20 19 20 21 23 23 24 24 24 23 24 24 23 23 23 23 24 24 24 25 24 25 25 24 24 25 25 23 23 23 24 23 24 25 26 27 28 29 30 31 32 33 34 34 35 37 38 39 41 45 49 52 54 56 55 53 52 52 52 52 52 51 50 49 48 47 47 46 44 42 40 37 37 37 36 35 33 30 28 28
18 18 17 18 18 18 19 19 19 19 21 23 23 23 23 23 24 25 24 23 23 23 23 23 23 24 23 23 22 22 23 24 25 26 26 25 26 26 27 28 29 30 32 33 34 35 36 36 37 38 39 39 41 44 47 50 52 52 51 51 50 48 45 44 43 42 41 40 40 39 39 38 37 37 36 35 35 33 31 30 31 33 33 32 31 30 29
16 16 15 16 17 17 17 19 19 19 20 22 23 23 22 22 22 23 23 22 21 21 21 20 20 21 21 21 21 22 24 26 27 29 30 30 29 30 31 33 34 35 36 37 37 38 39 41 41 41 41 43 47 51 53 53 50 47 45 43 41 39 36 35 34 34 34 33 33 34 34 34 33 33 33 32 32 31 29 27 27 28 28 28 29 31 32
14 13 13 14 16 16 17 19 21 20 20 21 22 21 21 20 21 21 20 19 18 18 18 18 18 19 20 21 23 26 28 29 30 31 33 34 34 34 35 36 38 39 40 40 41 43 44 44 43 44 47 51 53 53 50 46 43 42 40 38 36 34 33 33 33 33 33 34 34 34 34 34 34 34 34 33 31 30 28 26 25 26 26 26 27 30 32
12 12 11 13 15 16 17 19 21 20 19 19 18 17 17 17 17 17 17 17 17 17 18 19 20 22 25 27 29 31 33 33 33 35 36 38 38 38 39 40 41 41 42 43 45 46 46 45 46 50 54 55 52 47 43 41 38 36 35 33 32 32 32 32 33 34 35 35 35 35 34 35 35 35 34 33 32 30 28 27 26 26 26 26 27 29 31
12 12 11 12 13 15 16 17 17 17 16 15 15 15 15 16 16 17 18 19 20 21 23 24 26 29 31 33 35 36 37 38 38 39 40 41 42 42 43 43 44 44 44 46 47 48 49 50 53 54 53 49 43 39 37 35 32 31 31 30 30 30 31 32 33 34 34 34 34 34 34 35 35 34 33 33 32 31 30 28 27 27 26 26 26 27 29
13 12 12 12 13 14 14 14 15 15 15 15 15 16 17 18 19 20 22 24 26 28 30 32 34 36 38 40 40 40 41 42 43 43 43 45 47 46 47 48 49 49 49 52 53 54 53 53 51 48 43 38 34 32 30 29 29 29 30 29 29 30 31 32 32 33 33 34 34 34 34 35 34 34 33 33 32 31 30 29 28 27 26 26 26 26 27
14 13 13 13 14 15 16 16 16 17 18 18 19 20 21 23 25 27 29 32 34 37 38 39 41 42 44 44 43 43 44 45 46 47 48 49 50 50 51 53 55 55 56 56 55 52 49 45 42 37 33 30 29 28 28 28 28 29 30 30 30 31 32 33 33 33 34 34 34 34 34 34 33 33 32 31 31 30 29 28 28 28 27 26 26 27 28
16 16 16 16 17 18 19 20 20 22 24 25 26 28 30 32 34 35 38 40 41 42 43 44 45 45 46 46 46 47 48 49 50 52 53 54 54 56 58 59 58 55 53 50 47 44 41 37 34 31 29 28 27 28 28 28 29 30 31 31 31 32 32 33 34 33 33 32 32 32 31 31 31 30 30 30 29 29 28 28 28 28 29 28 29 30 31
20 20 21 21 22 23 24 26 28 30 32 34 36 37 38 40 41 43 44 44 45 46 46 47 47 48 49 49 50 52 53 54 55 57 58 58 59 60 59 56 52 48 45 43 41 38 36 33 31 30 30 29 29 29 28 28 29 31 31 32 32 32 32 32 32 31 30 30 29 29 29 29 29 29 29 29 30 31 30 30 30 31 32 32 33 33 34